Regional Weather Roundup
Issued by NWS Wakefield, VA

Home | Current Version | Previous Version | Text Only | Print | Product List | Glossary Off
Versions: 1 2 3 4 5 6 7 8 9 10 11 12 13 14 15 16 17 18 19 20 21 22 23 24 25 26 27 28 29 30 31 32 33 34 35 36 37 38 39 40 41 42 43 44 45 46 47 48 49 50

000
ASUS41 KAKQ 230810
RWRAKQ

REGIONAL WEATHER ROUNDUP
NATIONAL WEATHER SERVICE WAKEFIELD VA
400 AM EDT SAT AUG 23 2014

Note: "fair" indicates few or no clouds below 12,000 feet with no
significant weather and/or obstructions to visibility. * = Denotes
station may not report precipitation (e.g., rain,snow,etc.),
thunder or fog.

VAZ042-051-052>054-056-230900-
NORTHERN VIRGINIA

CITY           SKY/WX    TMP DP  RH WIND       PRES   REMARKS
WASH NATIONAL  CLOUDY    74  65  73 E9        29.99S
DULLES         CLOUDY    70  67  90 SE3       29.99S
FORT BELVOIR   CLOUDY    71  67  88 VRB3      29.99S
QUANTICO       CLOUDY    72  68  87 E8        29.99R
FREDERICKSBRG* CLOUDY    73  73 100 CALM      29.96F
STAFFORD*      CLOUDY    72  72 100 E5        30.02S
WARRENTON      CLOUDY    73  73 100 E3        29.98S
CULPEPER*      CLOUDY   N/A N/A N/A CALM      29.98S
MANASSAS*      CLOUDY    72  72 100 E7        29.98F
LEESBURG*      CLOUDY    72  72 100 SE3       30.00S
WINCHESTER     CLOUDY    72  70  94 E3        29.98F
$$

VAZ048-049-060>072-079>083-230900-
CENTRAL AND SOUTH CENTRAL VIRGINIA...AND NORTH CENTRAL NORTH CAROLINA

CITY           SKY/WX    TMP DP  RH WIND       PRES   REMARKS
RICHMOND       CLOUDY    73  70  90 E5        29.95F
CHESTERFIELD*  CLOUDY   N/A N/A N/A E3        29.97F
HANOVER        CLOUDY    71  70  96 CALM      29.98S FOG
TAPPAHANNOCK*  CLOUDY    70  68  91 CALM      29.97S
CHARLOTTSVILLE LGT RAIN  71  70  96 CALM      29.97F FOG
ORANGE*        LGT RAIN  70  68  94 E3        29.99S
LOUISA*        LGT RAIN  72  70  94 E5        29.97S
FARMVILLE*     CLOUDY    73  72  94 CALM      29.94S FOG
SOUTH HILL*    MOCLDY    73  73 100 CALM      29.99F FOG
ROANOKE RAPIDS PTSUNNY   72  70  94 CALM      29.94S FOG
RALEIGH        MOCLDY    75  71  87 CALM      29.94F
$$

VAZ088>098-230900-
SOUTHEAST VIRGINIA

CITY           SKY/WX    TMP DP  RH WIND       PRES   REMARKS
NORFOLK        MOCLDY    76  70  82 E6        29.93F
VIRGINIA BEACH MOCLDY    74  71  91 NE7       29.93F
NORFOLK NAVAL  MOCLDY    76  71  85 E8        29.95F
WEST POINT*    CLOUDY    72  69  92 CALM      29.97S
NEWPORT NEWS   CLEAR     76  70  82 E5        29.94F
LANGLEY AFB    CLEAR     74  74 100 E7        29.94S
FORT EUSTIS    CLEAR     73  73 100 E2        29.93S
WILLIAMSBURG*  PTCLDY    73  72  94 CALM      29.95F
FRANKLIN*      MOCLDY    70  70 100 CALM      29.94S
WAKEFIELD      CLEAR     70  68  93 CALM      29.95S FOG
$$

VAZ020-022-025-037-045-230900-
WESTERN AND SOUTHWEST VIRGINIA

CITY           SKY/WX    TMP DP  RH WIND       PRES   REMARKS
STAUNTON*      CLOUDY    72  69  92 CALM      30.00F
HOT SPRINGS VA FOG      N/A N/A N/A W7        30.12S VSB<1/4
LYNCHBURG      CLOUDY   N/A N/A N/A E3        29.98F
DANVILLE       CLOUDY    75  72  90 CALM      29.95S
MARTINSVILLE   CLOUDY    75  75  99 CALM      29.99S FOG
ROANOKE        CLOUDY    74  67  78 W5        30.00F
BLACKSBURG     CLOUDY    70  70 100 CALM      30.05F
DUBLIN*        MOCLDY    71  69  92 CALM      30.05F
MARION*        CLOUDY   N/A N/A N/A W8        30.09F
HILLSVILLE*    CLOUDY    68  66  92 NW7       30.06F
RICHLANDS*     CLOUDY    71  69  92 CALM      30.08F
WISE*          LGT RAIN  68  68 100 CALM      30.10S
ABINGDON*      CLOUDY    69  69  99 W3        30.06F
$$

MDZ021>025-VAZ099-100-230900-
SOUTHERN MARYLAND AND THE DELMARVA PENINSULA

CITY           SKY/WX    TMP DP  RH WIND       PRES   REMARKS
PATUXENT RIVER MOCLDY    70  67  90 E7        29.97S
BAY BRIDGE APT   N/A     68  64  88 E5        29.99F
LEONARDTOWN    CLOUDY    70  64  83 E3        29.99S
DOVER          CLEAR     67  67  98 NE6       29.98F
GEORGETOWN     CLEAR     67  63  87 E9        29.99S
EASTON         CLEAR     66  66 100 CALM      30.03S
CAMBRIDGE      CLEAR     66  63  88 NE5       29.97F
SALISBURY      PTCLDY    68  64  87 CALM      29.97S
OCEAN CITY     CLOUDY    73  65  75 NE8       29.97S
WALLOPS ISLAND PTCLDY    73  68  84 E8        29.96S
ACCOMACK*      CLEAR     68  64  88 E5        29.95S
$$

NCZ012>017-030>032-230900-
EASTERN NORTH CAROLINA

CITY           SKY/WX    TMP DP  RH WIND       PRES   REMARKS
ELIZABETH CITY PTCLDY    74  72  93 NE6       29.93F
AHOSKIE*       PTCLDY    71  69  94 CALM      29.94S
EDENTON*       PTCLDY    72  71  97 NE3       29.93F FOG
CURRITUCK*     PTCLDY    75  71  87 NE3       29.94S
KILL DEVIL HLS CLEAR     75  71  85 CALM      29.92S
MANTEO         CLEAR     75  72  88 NE7       29.93F
CAPE HATTERAS  MOCLDY    75  72  90 E3        29.92F
GOLDSBORO      MOCLDY    76  75  98 CALM      29.91F
WASHINGTON     MOCLDY    73  71  93 CALM      29.94S
GREENVILLE     MOCLDY    75  72  88 CALM      29.95S
NEW BERN       CLOUDY    78  74  87 CALM      29.94S
WILMINGTON     PTCLDY    74  73  97 NE3       29.91F
$$

VAZ048-230900-
ELSEWHERE

CITY           SKY/WX    TMP DP  RH WIND       PRES   REMARKS
HARRISBURG PA  CLOUDY    70  59  68 SE7       30.00S
BALTIMORE      MOCLDY    69  63  81 E6        30.00S
ANNAPOLIS      CLOUDY    71  64  78 E6        29.99S
ANDREWS AFB    CLOUDY    69  67  93 E6        29.99F
WILMINGTON DE  PTCLDY    68  63  84 NE6       30.02S
PHILADELPHIA   MOCLDY    68  62  81 E7        30.02S
WILDWOOD NJ*   PTCLDY    64  59  82 N3        30.00S
ATLANTIC CITY  PTCLDY    64  63  96 CALM      30.00S
HENDERSON NC   LGT RAIN  73  72  94 CALM      29.96R
GREENSBORO     CLOUDY    75  71  87 CALM      29.96S
ROCKY MOUNT    CLOUDY    75  72  90 NE3       29.93F
FAYETTEVILLE   MOCLDY    76  71  85 S3        29.91F
CHARLOTTE      MOCLDY    74  71  91 CALM      29.95F
$$

VAZ100-230900-
MARINE

STATION/POSITION TIME  TEMP    WIND        PRES    WAVE   SWELL
                       AIR SEA DIR/SP/G            HT/PER HT/PER
                 (UTC) (F)     (DEG/KT/KT) (MB)    (FT/S) (FT/S)
44066 TX TWR #4  0800   70 72   60/ 17/ 21 1014.7F   5/ 6
CAPE MAY NJ      0800   67 79   20/  2/  3 1015.0S
LEWES DE         0800   72 76   90/ 10/ 11 1014.9S
15NM E FENWICK I 0800   73 75              1014.6F   4/ 8
OCEAN-CITY-INLET 0800   73 76   80/  7/ 10 1014.4S
WACHAPREAGUE VA  0800   74 80   50/  6/ 11 1014.2S
THOMAS POINT MD  0800   70 78   60/ 10/ 11 1016.1S
GOOSES REEF MD   0800   72     100/ 10/ 12 1015.7F
COVE POINT MD    0800   70      90/ 11/ 13 1015.0R
SOLOMONS ISLAND  0800      80                N/A
BISHOPS HEAD MD  0800   71 78   60/  9/ 11 1014.4S
PINEY POINT MD   0800           80/  5/  6   N/A
POTOMAC MD       0800   74      90/ 12/ 14 1013.8S
CAMBRIDGE MD     0800   70 79   60/  7/  9 1014.8F
LEWISETTA VA     0800   74 80   90/ 11/ 14 1014.2S
RAPPAHANNOCK LGT 0800           60/ 11/ 12 1014.7R
STINGRAY PT      0800   75      90/ 12/ 14 1014.8S
YORK RVR RNG VA  0800   76      90/ 11/ 13 1013.5S
YORKTOWN VA      0800   76 80   80/ 11/ 12 1013.7S
JAMESTOWN VA     0800   72      80/  4/  6   N/A
DOMINION TERM VA 0800   77      60/  1/  5 1013.8F
KIPTOPEKE VA     0800      82   90/  5/  7   N/A
CHES BAY BRIDGE  0800   76 79   50/ 11/ 13 1013.3S
CAPE HENRY VA    0800   76      60/ 12/ 14 1012.8S
CHESAPEAKE LGHT  0700   76      50/ 10/ 11 1014.5F
WILLOUBY STN VA  0800   76      60/  9/ 10 1012.5F
S CRANEY ISL VA  0800           70/  6/  7 1013.4F
CAPE HENRY BUOY  0800      78                N/A     3/ 7
1ST LANDING BUOY 0800   76      60/ 12/ 14 1013.6F
CAPE CHARLES BUO 0800      78                N/A     3/ 4   2/ 7
OFFSHORE WE BUOY 0800      78                N/A     3/ 7   2/ 7
64NM E OF VA BCH 0800   77 78   40/  8/ 10 1013.0F   2/ 7   2/ 7
DUCK PIER NC     0800   77 80   40/  8/  9 1012.8S
44056 DUCK FRF   0700                        N/A     2/ 7
OREGON INLET NC  0800   76 82   10/  6/  8 1013.3S
HATTERAS NC      0800   79 82   50/  6/  9 1013.4F
DIAMOND SHLS NC  0800   78     340/  8/ 10 1012.9F   2/ 7   2/ 7
CAPE LOOKOUT NC  0700   80      40/  4/  5 1013.1R
$$


USA.gov is the U.S. government's official web portal to all federal, state and local government web resources and services.